Chicago Executive, IL

3:17 AM CDT on May 21, 2018 (GMT -0500)
Chicago Executive

Weather History for KPWK - November, 2012

Change the Weather History Date:

Wednesday, November 28, 2012

  Actual Average Record
Temperature  
Mean Temperature 36 °F 34 °F  
Max Temperature 44 °F 42 °F 65 °F (1998)
Min Temperature 27 °F 27 °F 13 °F (2002)
Degree Days  
Heating Degree Days 29 31  
Month to date heating degree days 702 686  
Since 1 July heating degree days 1271 1207  
Cooling Degree Days 0 0  
Month to date cooling degree days 0 0  
Year to date cooling degree days 1228 789  
Moisture  
Dew Point 19 °F    
Average Humidity 55    
Maximum Humidity 72    
Minimum Humidity 37    
Precipitation  
Precipitation 0.00 in 0.09 in 0.98 in (2016)
Month to date precipitation 0.67 2.71  
Year to date precipitation 19.82 31.34  
Sea Level Pressure  
Sea Level Pressure 30.34 in    
Wind  
Wind Speed 5 mph (WSW)    
Max Wind Speed 13 mph    
Max Gust Speed 17 mph    
Visibility 10 miles    
Events      
T = Trace of Precipitation, MM = Missing Value Source: NWS Daily Summary

Daily Weather History Graph

Daily Weather History Graph

Search for Another Location

Airport or City:

Astronomy

Nov. 28, 2012 Rise Set
Actual Time 6:57 AM CST 4:21 PM CST
Civil Twilight 6:26 AM CST 4:52 PM CST
Nautical Twilight 5:51 AM CST 5:27 PM CST
Astronomical Twilight 5:18 AM CST 6:00 PM CST
Moon 4:36 PM CST (11/28) 6:54 AM CST (11/28)
Length of Visible Light 10h 26m
Length of Day
9h 23m
Full, 100% of the Moon is Illuminated
Nov 28
Full
Dec 6
Last Quarter
Dec 13
New
Dec 19
First Quarter
Dec 28
Full

Hourly Weather History & Observations

Time (CST) Temp. Windchill Dew Point Humidity Pressure Visibility Wind Dir Wind Speed Gust Speed Precip Events Conditions
12:52 AM 30.9 °F 23.5 °F 15.1 °F 52% 30.27 in 10.0 mi West 8.1 mph - N/A   Overcast
1:52 AM 30.9 °F 26.2 °F 16.0 °F 54% 30.29 in 10.0 mi West 4.6 mph - N/A   Overcast
2:52 AM 30.0 °F 25.2 °F 16.0 °F 56% 30.30 in 10.0 mi West 4.6 mph - N/A   Mostly Cloudy
3:52 AM 28.9 °F 25.2 °F 16.0 °F 58% 30.30 in 10.0 mi WSW 3.5 mph - N/A   Clear
4:52 AM 28.0 °F 24.2 °F 16.0 °F 61% 30.32 in 10.0 mi West 3.5 mph - N/A   Clear
5:52 AM 27.0 °F 21.6 °F 16.0 °F 63% 30.33 in 10.0 mi West 4.6 mph - N/A   Clear
6:52 AM 28.0 °F 22.8 °F 17.1 °F 63% 30.36 in 10.0 mi West 4.6 mph - N/A   Clear
7:52 AM 28.9 °F 21.9 °F 17.1 °F 61% 30.38 in 10.0 mi WNW 6.9 mph - N/A   Clear
8:52 AM 32.0 °F 23.6 °F 18.0 °F 56% 30.40 in 10.0 mi NW 10.4 mph - N/A   Clear
9:52 AM 36.0 °F 29.0 °F 19.9 °F 52% 30.40 in 10.0 mi NNW 9.2 mph - N/A   Clear
10:52 AM 37.0 °F 34.5 °F 21.0 °F 52% 30.40 in 10.0 mi Variable 3.5 mph - N/A   Clear
11:52 AM 39.9 °F 35.1 °F 21.0 °F 47% 30.38 in 10.0 mi West 6.9 mph - N/A   Clear
12:52 PM 43.0 °F 38.8 °F 21.0 °F 42% 30.37 in 10.0 mi West 6.9 mph - N/A   Clear
1:52 PM 43.0 °F 38.2 °F 19.0 °F 38% 30.35 in 10.0 mi West 8.1 mph - N/A   Clear
2:52 PM 44.1 °F 39.5 °F 19.0 °F 37% 30.34 in 10.0 mi SW 8.1 mph - N/A   Clear
3:52 PM 43.0 °F 38.8 °F 19.0 °F 38% 30.35 in 10.0 mi WSW 6.9 mph - N/A   Clear
4:52 PM 39.9 °F 37.8 °F 19.9 °F 45% 30.35 in 10.0 mi SW 3.5 mph - N/A   Clear
5:52 PM 37.0 °F 34.5 °F 19.9 °F 50% 30.34 in 10.0 mi SSW 3.5 mph - N/A   Clear
6:52 PM 36.0 °F 32.1 °F 21.0 °F 55% 30.34 in 10.0 mi SSW 4.6 mph - N/A   Clear
7:52 PM 32.0 °F 28.7 °F 21.0 °F 64% 30.33 in 10.0 mi SSW 3.5 mph - N/A   Clear
8:52 PM 30.0 °F - 21.0 °F 69% 30.32 in 10.0 mi Calm Calm - N/A   Clear
9:52 PM 34.0 °F 29.8 °F 23.0 °F 64% 30.32 in 10.0 mi South 4.6 mph - N/A   Clear
10:52 PM 30.9 °F 25.2 °F 23.0 °F 72% 30.30 in 10.0 mi South 5.8 mph - N/A   Clear
11:52 PM 35.1 °F 31.0 °F 23.0 °F 61% 30.30 in 10.0 mi SSW 4.6 mph - N/A   Clear